K7GFH-13 Weather Reports


time (UTC)temp
C
wind
direction
speed
KPH
gust
KPH
rain 1hr
cm
rain 24hr
cm
rain mn
cm
humidity
%
barometer
mb
20260506050526 14 148 1.6 3.2 0.00 0.00 0.00 85 1018.5
20260506045023 15 126 0.0 0.0 0.00 0.00 0.00 85 1018.6
20260506043520 15 93 0.0 0.0 0.00 0.00 0.00 85 1018.4
20260506042021 14 95 0.0 0.0 0.00 0.00 0.00 86 1018.2
20260506040519 15 142 0.0 0.0 0.00 0.00 0.00 84 1018.2
20260506035014 15 137 0.0 0.0 0.00 0.00 0.00 83 1017.9
20260506033512 15 165 0.0 0.0 0.00 0.00 0.00 81 1017.7
20260506032008 15 159 0.0 0.0 0.00 0.00 0.00 82 1017.7
20260506030507 15 76 0.0 0.0 0.00 0.00 0.00 81 1017.4
20260506025003 16 156 0.0 0.0 0.00 0.00 0.00 77 1017.5
20260506023458 15 263 0.0 0.0 0.00 0.00 0.00 75 1017.3
20260506021956 15 305 1.6 1.6 0.00 0.00 0.00 75 1017.4
20260506020454 16 3 1.6 3.2 0.00 0.00 0.00 74 1017.3
20260506014951 16 311 3.2 3.2 0.00 0.00 0.00 74 1017.4
20260506013449 16 274 1.6 1.6 0.00 0.00 0.00 74 1017.3
20260506011944 16 217 0.0 0.0 0.00 0.00 0.00 75 1017.3
20260506010443 15 284 3.2 3.2 0.00 0.00 0.00 75 1017.4
20260506004944 16 309 3.2 3.2 0.00 0.00 0.00 75 1017.4
20260506003440 16 58 1.6 1.6 0.00 0.00 0.00 75 1017.4
20260506001940 16 311 3.2 4.8 0.00 0.00 0.00 75 1017.3
20260506000438 16 256 0.0 1.6 0.00 0.00 0.00 75 1017.6
20260505234935 16 276 4.8 6.4 0.00 0.00 0.00 73 1017.7
20260505233432 16 214 3.2 3.2 0.00 0.00 0.00 73 1017.7
20260505231930 16 217 0.0 1.6 0.00 0.00 0.00 72 1017.7
20260505230429 16 231 1.6 3.2 0.00 0.00 0.00 73 1017.7
20260505224930 16 327 6.4 9.7 0.00 0.00 0.00 73 1017.9
20260505223427 16 300 3.2 3.2 0.00 0.00 0.00 72 1018.0
20260505221927 16 249 3.2 4.8 0.00 0.00 0.00 71 1018.1
20260505220424 16 264 3.2 3.2 0.00 0.00 0.00 73 1018.1
20260505214923 16 210 3.2 3.2 0.00 0.00 0.00 72 1018.0
20260505213421 16 342 3.2 3.2 0.00 0.00 0.00 72 1018.3
20260505211916 16 265 1.6 3.2 0.00 0.00 0.00 72 1018.0
20260505210414 16 228 3.2 4.8 0.00 0.00 0.00 70 1018.2
20260505204911 15 252 1.6 1.6 0.00 0.00 0.00 76 1018.4
20260505203408 15 293 6.4 6.4 0.00 0.00 0.00 79 1018.4
20260505201908 14 267 1.6 1.6 0.00 0.00 0.00 78 1018.5
20260505200406 15 177 0.0 0.0 0.00 0.00 0.00 76 1018.6
20260505194902 15 290 1.6 1.6 0.00 0.00 0.00 75 1018.6
20260505193358 15 262 1.6 4.8 0.00 0.00 0.00 76 1018.6
20260505191856 14 291 1.6 3.2 0.00 0.00 0.00 79 1018.8
20260505190352 13 303 3.2 4.8 0.00 0.00 0.00 83 1018.6
20260505184852 13 282 4.8 6.4 0.00 0.00 0.00 83 1018.8
20260505183349 13 253 1.6 3.2 0.00 0.00 0.00 85 1018.8
20260505181845 13 329 1.6 1.6 0.00 0.00 0.00 84 1018.7
20260505180341 13 198 1.6 1.6 0.00 0.00 0.00 82 1018.7
20260505174837 13 196 1.6 1.6 0.00 0.00 0.00 85 1018.6
20260505173332 12 194 1.6 3.2 0.00 0.00 0.00 87 1018.5
20260505171833 12 186 1.6 1.6 0.00 0.00 0.00 89 1018.5
20260505170329 12 191 1.6 1.6 0.00 0.00 0.00 88 1018.2
20260505164828 11 198 0.0 0.0 0.00 0.00 0.00 91 1018.4
20260505163328 11 303 1.6 1.6 0.00 0.00 0.00 91 1018.2
20260505161825 11 185 1.6 1.6 0.00 0.00 0.00 92 1018.2
20260505160323 11 162 3.2 3.2 0.00 0.00 0.00 93 1018.2
20260505153319 11 197 0.0 0.0 0.00 0.00 0.00 95 1018.1
20260505151819 11 187 0.0 1.6 0.00 0.00 0.00 96 1018.0
20260505150316 11 205 1.6 1.6 0.00 0.00 0.00 96 1018.0
20260505140304 10 192 0.0 0.0 0.00 0.00 0.00 96 1017.5
20260505130251 11 193 0.0 0.0 0.00 0.00 0.00 94 1017.0
20260505124748 11 201 0.0 0.0 0.00 0.00 0.00 92 1017.0
20260505123243 11 197 0.0 1.6 0.00 0.00 0.00 90 1017.1
20260505121739 11 163 1.6 3.2 0.00 0.00 0.00 88 1017.0
20260505120234 11 310 1.6 1.6 0.00 0.00 0.00 88 1017.0
20260505114734 11 237 0.0 0.0 0.00 0.00 0.00 88 1016.9
20260505113229 11 196 0.0 0.0 0.00 0.00 0.00 87 1016.8
20260505111729 11 235 1.6 1.6 0.00 0.00 0.00 87 1016.8
20260505110224 11 229 1.6 1.6 0.00 0.00 0.00 87 1016.7
20260505101716 12 245 1.6 1.6 0.00 0.00 0.00 87 1016.3
20260505100211 12 187 0.0 0.0 0.00 0.00 0.00 86 1016.3
20260505094706 12 322 1.6 3.2 0.00 0.00 0.00 86 1016.4
20260505093202 12 190 0.0 1.6 0.00 0.00 0.00 85 1016.3
20260505091700 12 216 3.2 4.8 0.00 0.00 0.00 86 1016.3
20260505090159 12 211 1.6 1.6 0.00 0.00 0.00 86 1016.2
20260505084657 12 184 0.0 0.0 0.00 0.00 0.00 85 1015.9
20260505083155 12 186 3.2 3.2 0.00 0.00 0.00 85 1015.8
20260505081655 12 224 4.8 4.8 0.00 0.00 0.00 84 1015.6
20260505080152 13 258 3.2 6.4 0.00 0.00 0.00 83 1015.6
20260505074648 13 65 0.0 1.6 0.00 0.00 0.00 83 1015.8
20260505073146 13 140 0.0 1.6 0.00 0.00 0.00 82 1015.4
20260505071646 13 280 0.0 1.6 0.00 0.00 0.00 81 1015.1
20260505070143 13 187 0.0 0.0 0.00 0.00 0.00 80 1015.1
20260505064638 15 215 0.0 0.0 0.00 0.00 0.00 77 1014.9
20260505063135 15 230 1.6 1.6 0.00 0.00 0.00 75 1014.8
20260505061632 16 173 1.6 3.2 0.00 0.00 0.00 74 1014.5